Weather Roundup
Issued by NWS Chicago, IL

Home | Current Version | Previous Version | Text Only | Print | Product List | Glossary On
Versions: 1 2 3 4 5 6 7 8 9 10 11 12 13 14 15 16 17 18 19 20 21 22 23 24 25 26 27 28 29 30 31 32 33 34 35 36 37 38 39 40 41 42 43 44 45 46 47 48 49 50
000
NZUS59 KLOT 260503
HRRLOT

CHICAGO AREA WEATHER ROUNDUP
NATIONAL WEATHER SERVICE CHICAGO/ROMEOVILLE IL
1100 PM CST SAT FEB 25 2017

NOTE: "FAIR" INDICATES FEW OR NO CLOUDS BELOW 12,000 FEET WITH NO
SIGNIFICANT WEATHER AND/OR OBSTRUCTIONS TO VISIBILITY.

* THESE STATIONS ARE NOT UNDER NWS QUALITY CONTROL. THEY ALSO MAY NOT
  REPORT WEATHER SUCH AS PRECIPITATION OR FOG.

ILZ005-006-012>014-019>023-260600-
NORTHEAST ILLINOIS

CITY           SKY/WX    TMP DP  RH WIND       PRES   REMARKS
OHARE          CLOUDY    26  14  60 W9        30.03S WCI  17
MIDWAY         CLOUDY    26  12  55 W8        30.05R WCI  18
AURORA         CLOUDY    23  18  81 W7        30.05R WCI  15
LANSING*       CLOUDY    24  16  70 W6        30.06R WCI  17
JOLIET*        CLOUDY    26  20  76 CALM      30.07R
WAUKEGAN       CLOUDY    23  14  68 W7        30.01S WCI  15
DUPAGE AIRPORT CLOUDY    24  14  65 W9        30.03S WCI  14
WHEELING       CLOUDY    24  13  62 W7        30.05R WCI  16
KANKAKEE*      CLOUDY    25  19  77 W7        30.08R WCI  18
MORRIS*        CLOUDY    25  20  82 W5        30.06R WCI  19
LEWIS AIRPORT* CLOUDY    24  20  85 W6        30.06R WCI  17
NORTHERLY ISL    N/A     26  15  63 W9          N/A  WCI  17
$$

WIZ051-052-058>065-066-070>072-260600-
SOUTHEAST WISCONSIN

CITY           SKY/WX    TMP DP  RH WIND       PRES   REMARKS
MILWAUKEE      PTCLDY    24  11  57 W9        30.00R WCI  14
KENOSHA*       CLOUDY    23  14  68 W8        30.01S WCI  14
RACINE*        CLOUDY    22  13  68 W9        30.02R WCI  12
WAUKESHA       CLOUDY    19  12  73 SW7       30.00R WCI  10
WEST BEND      CLEAR     19  14  79 W5        29.97S WCI  13
$$

INZ001>003-010>013-019-020-260600-
NORTHWEST INDIANA

CITY           SKY/WX    TMP DP  RH WIND       PRES   REMARKS
GARY*          CLEAR     26  13  59 W7        30.06S WCI  18
MICHIGAN CITY* NOT AVBL
RENSSELAER*    NOT AVBL
VALPARAISO     PTCLDY    23  15  71 W6        30.05R WCI  16
$$

LMZ740>746-260600-
SOUTHERN LAKE MICHIGAN

STATION/POSITION TIME  SKY/WX   TEMP WIND        PRES    VSBY
                                AIR  DIR/SP/G
                 (UTC)          (F)  (DEG/KT/KT) (MB)    (MI)
HARRISON CRIB    0440            27  280/ 18/ 20   N/A
BURNHAM HARBOR   0500            27  240/  5/ 15   N/A
CALUMET HARBOR   0430            25  250/  5/ 12 1016.9R
BURNS HARBOR     0440            28  290/ 14/ 19 1017.6R
MICHIGAN CITY    0440            27  260/ 16/ 17   N/A
$$

ABBREVIATIONS USED IN REMARKS
   TC - TEMPERATURE IN CELSIUS
  WCI - WIND CHILL INDEX
   HX - HEAT INDEX
  VSB - VISIBILITY
$$




USA.gov is the U.S. government's official web portal to all federal, state and local government web resources and services.